AFR6720 LFPG-MMSM

Flight info

Callsign AFR6720
Flight time N/A
Altitude 28000
Route ATREX UT225 VESAN UL613 SOVAT L613 TLA DCT BALIX/M081F280 DCT 6230N02000W 64N030W 64N040W/M083F300 63N050W DCT NIFTY DCT PEPKI/N0492F300 DCT 5330N07000W 46N080W/N0482F320 DCT NOSIK DCT FWA DCT VHP DCT PXV DCT MHZ DCT LSU DCT WAHOO M345 RUMMM/N0481F340 M345 AXEXO UM345 PAZ UT154 LONBU UT169 VITOS VITOS1R
Aircraft B77L/H-SDE2E3FGHIJ3J5J6M1M2P2RWXYZ/LD1B1

Departure

Time N/A
Airport Charles de Gaulle International Airport (LFPG)

Arrival

Time 2026-04-20 09:47
Airport Felipe Ángeles International Airport (MMSM)
Time Latitude Longitude Altitude Speed Heading
2026-04-20 06:34 38.95643 -87.01293 31626 ft 470 kts 219°
2026-04-20 06:35 38.92822 -87.03373 32235 ft 465 kts 219°
2026-04-20 06:35 38.90034 -87.05428 32817 ft 461 kts 219°
2026-04-20 06:35 38.87268 -87.07468 33344 ft 458 kts 219°
2026-04-20 06:35 38.84515 -87.09501 33824 ft 455 kts 219°
2026-04-20 06:36 38.81771 -87.11526 34272 ft 454 kts 219°
2026-04-20 06:36 38.76262 -87.15596 34329 ft 457 kts 219°
2026-04-20 06:37 38.70783 -87.19619 34329 ft 450 kts 219°
2026-04-20 06:37 38.65352 -87.23604 34321 ft 450 kts 219°
2026-04-20 06:38 38.60840 -87.26913 34312 ft 449 kts 219°
2026-04-20 06:38 38.55418 -87.30882 34300 ft 450 kts 219°
2026-04-20 06:39 38.49981 -87.34854 34298 ft 450 kts 219°
2026-04-20 06:39 38.44539 -87.38822 34295 ft 451 kts 220°
2026-04-20 06:40 38.39094 -87.42783 34288 ft 451 kts 220°
2026-04-20 06:40 38.33638 -87.46746 34287 ft 451 kts 220°
2026-04-20 06:41 38.28180 -87.50704 34287 ft 451 kts 220°
2026-04-20 06:41 38.22718 -87.54658 34294 ft 451 kts 220°
2026-04-20 06:42 38.17265 -87.58599 34289 ft 451 kts 220°
2026-04-20 06:42 38.11808 -87.62536 34290 ft 451 kts 220°
2026-04-20 06:43 38.06352 -87.66465 34293 ft 450 kts 220°
2026-04-20 06:43 38.00904 -87.70384 34290 ft 450 kts 221°
2026-04-20 06:44 37.95454 -87.74296 34293 ft 450 kts 221°
2026-04-20 06:44 37.89707 -87.77727 34299 ft 466 kts 211°
2026-04-20 06:45 37.83582 -87.80484 34296 ft 467 kts 211°
2026-04-20 06:45 37.77446 -87.83231 34295 ft 468 kts 211°
2026-04-20 06:46 37.71319 -87.86000 34288 ft 468 kts 212°
2026-04-20 06:46 37.65186 -87.88786 34283 ft 468 kts 212°
2026-04-20 06:47 37.59092 -87.91554 34281 ft 469 kts 212°
2026-04-20 06:47 37.52957 -87.94336 34283 ft 469 kts 212°
2026-04-20 06:48 37.46818 -87.97112 34287 ft 469 kts 212°
2026-04-20 06:48 37.40679 -87.99883 34269 ft 468 kts 212°
2026-04-20 06:49 37.34556 -88.02644 34262 ft 467 kts 212°
2026-04-20 06:49 37.28440 -88.05396 34263 ft 466 kts 212°
2026-04-20 06:50 37.22336 -88.08138 34260 ft 465 kts 212°
2026-04-20 06:50 37.16247 -88.10869 34259 ft 464 kts 212°
2026-04-20 06:51 37.10170 -88.13589 34255 ft 464 kts 212°
2026-04-20 06:51 37.04091 -88.16306 34249 ft 463 kts 212°
2026-04-20 06:52 36.98026 -88.19013 34250 ft 462 kts 212°
2026-04-20 06:52 36.91964 -88.21714 34256 ft 462 kts 212°
2026-04-20 06:53 36.85905 -88.24408 34267 ft 462 kts 212°
2026-04-20 06:53 36.79851 -88.27096 34268 ft 462 kts 212°
2026-04-20 06:54 36.73785 -88.29785 34269 ft 462 kts 212°
2026-04-20 06:54 36.67761 -88.32451 34274 ft 462 kts 212°
2026-04-20 06:55 36.61655 -88.35148 34277 ft 463 kts 212°
2026-04-20 06:55 36.55585 -88.37824 34278 ft 463 kts 212°
2026-04-20 06:56 36.49515 -88.40496 34278 ft 463 kts 212°
2026-04-20 06:56 36.43475 -88.43151 34279 ft 463 kts 211°
2026-04-20 06:57 36.37396 -88.45819 34282 ft 464 kts 211°
2026-04-20 06:57 36.31308 -88.48485 34275 ft 464 kts 211°
2026-04-20 06:58 36.25216 -88.51148 34278 ft 464 kts 211°
2026-04-20 06:58 36.19134 -88.53803 34274 ft 464 kts 211°
2026-04-20 06:59 36.13046 -88.56457 34284 ft 464 kts 211°
2026-04-20 06:59 36.06952 -88.59110 34280 ft 464 kts 211°
2026-04-20 07:00 36.00856 -88.61758 34281 ft 464 kts 211°
2026-04-20 07:00 35.94760 -88.64402 34282 ft 465 kts 211°
2026-04-20 07:01 35.88664 -88.67041 34285 ft 465 kts 211°
2026-04-20 07:01 35.82559 -88.69680 34299 ft 465 kts 211°
2026-04-20 07:02 35.76456 -88.72314 34295 ft 465 kts 211°
2026-04-20 07:02 35.70349 -88.74947 34293 ft 465 kts 211°
2026-04-20 07:03 35.64237 -88.77575 34301 ft 465 kts 211°
2026-04-20 07:03 35.58120 -88.80203 34308 ft 466 kts 211°
2026-04-20 07:04 35.52000 -88.82826 34311 ft 466 kts 210°
2026-04-20 07:04 35.45924 -88.85428 34306 ft 466 kts 210°
2026-04-20 07:05 35.39805 -88.88043 34305 ft 465 kts 210°
2026-04-20 07:05 35.33693 -88.90652 34307 ft 465 kts 210°
2026-04-20 07:06 35.27575 -88.93258 34302 ft 465 kts 210°
2026-04-20 07:06 35.21466 -88.95856 34300 ft 465 kts 210°
2026-04-20 07:07 35.15355 -88.98451 34305 ft 464 kts 210°
2026-04-20 07:07 35.09257 -89.01037 34302 ft 464 kts 210°
2026-04-20 07:08 35.03160 -89.03618 34304 ft 463 kts 210°
2026-04-20 07:08 34.97074 -89.06190 34300 ft 463 kts 210°
2026-04-20 07:09 34.90999 -89.08753 34304 ft 462 kts 210°
2026-04-20 07:09 34.84930 -89.11311 34300 ft 461 kts 210°
2026-04-20 07:10 34.78865 -89.13861 34303 ft 460 kts 210°
2026-04-20 07:10 34.72821 -89.16401 34307 ft 460 kts 210°
2026-04-20 07:11 34.66771 -89.18939 34304 ft 460 kts 210°
2026-04-20 07:11 34.60721 -89.21473 34310 ft 460 kts 210°
2026-04-20 07:12 34.54721 -89.23981 34306 ft 459 kts 210°
2026-04-20 07:12 34.48680 -89.26504 34315 ft 459 kts 210°
2026-04-20 07:13 34.42640 -89.29021 34324 ft 459 kts 210°
2026-04-20 07:13 34.36600 -89.31534 34326 ft 459 kts 210°
2026-04-20 07:14 34.30568 -89.34041 34325 ft 459 kts 210°
2026-04-20 07:14 34.24528 -89.36547 34324 ft 458 kts 210°
2026-04-20 07:15 34.18498 -89.39045 34323 ft 458 kts 210°
2026-04-20 07:15 34.12470 -89.41539 34318 ft 458 kts 210°
2026-04-20 07:16 34.06443 -89.44028 34317 ft 458 kts 211°
2026-04-20 07:16 34.00415 -89.46514 34310 ft 457 kts 211°
2026-04-20 07:17 33.94391 -89.48994 34314 ft 457 kts 211°
2026-04-20 07:17 33.88375 -89.51468 34306 ft 457 kts 211°
2026-04-20 07:18 33.82363 -89.53936 34309 ft 456 kts 211°
2026-04-20 07:18 33.76355 -89.56399 34319 ft 456 kts 211°
2026-04-20 07:19 33.70349 -89.58858 34319 ft 456 kts 211°
2026-04-20 07:19 33.64345 -89.61312 34317 ft 456 kts 211°
2026-04-20 07:20 33.58341 -89.63762 34316 ft 456 kts 211°
2026-04-20 07:20 33.52341 -89.66208 34308 ft 456 kts 211°
2026-04-20 07:21 33.46338 -89.68651 34310 ft 455 kts 211°
2026-04-20 07:21 33.40338 -89.71089 34291 ft 455 kts 211°
2026-04-20 07:22 33.34337 -89.73524 34287 ft 455 kts 211°
2026-04-20 07:22 33.28334 -89.75957 34273 ft 456 kts 211°
2026-04-20 07:23 33.22368 -89.78370 34262 ft 455 kts 211°
2026-04-20 07:23 33.16369 -89.80794 34266 ft 455 kts 211°
2026-04-20 07:24 33.10369 -89.83214 34268 ft 455 kts 211°
2026-04-20 07:24 33.04363 -89.85633 34280 ft 455 kts 211°
2026-04-20 07:25 32.98359 -89.88049 34268 ft 456 kts 211°
2026-04-20 07:25 32.92354 -89.90462 34276 ft 456 kts 210°
2026-04-20 07:26 32.86342 -89.92873 34272 ft 456 kts 210°
2026-04-20 07:26 32.80329 -89.95282 34270 ft 456 kts 210°
2026-04-20 07:27 32.74312 -89.97688 34284 ft 456 kts 210°
2026-04-20 07:27 32.69308 -89.99687 34298 ft 457 kts 210°
2026-04-20 07:28 32.63282 -90.02091 34312 ft 457 kts 210°
2026-04-20 07:28 32.57256 -90.04491 34320 ft 457 kts 210°
2026-04-20 07:29 32.51229 -90.06890 34326 ft 457 kts 210°
2026-04-20 07:29 32.45203 -90.09290 34327 ft 455 kts 211°
2026-04-20 07:30 32.39541 -90.12327 34342 ft 441 kts 219°
2026-04-20 07:30 32.34130 -90.15767 34333 ft 442 kts 219°
2026-04-20 07:31 32.28703 -90.19191 34332 ft 442 kts 218°
2026-04-20 07:31 32.23260 -90.22600 34324 ft 443 kts 218°
2026-04-20 07:32 32.17813 -90.25998 34323 ft 443 kts 218°
2026-04-20 07:32 32.12390 -90.29375 34319 ft 443 kts 218°
2026-04-20 07:33 32.06936 -90.32768 34317 ft 443 kts 218°
2026-04-20 07:33 32.01478 -90.36158 34319 ft 444 kts 218°
2026-04-20 07:34 31.96015 -90.39548 34318 ft 444 kts 218°
2026-04-20 07:34 31.90546 -90.42937 34315 ft 444 kts 218°
2026-04-20 07:35 31.82351 -90.48006 34318 ft 444 kts 218°
2026-04-20 07:35 31.76891 -90.51377 34317 ft 443 kts 218°
2026-04-20 07:36 31.71427 -90.54746 34315 ft 443 kts 218°
2026-04-20 07:36 31.65971 -90.58106 34322 ft 442 kts 218°
2026-04-20 07:37 31.60526 -90.61455 34317 ft 442 kts 218°
2026-04-20 07:37 31.55086 -90.64797 34319 ft 441 kts 218°
2026-04-20 07:38 31.49656 -90.68128 34318 ft 440 kts 218°
2026-04-20 07:38 31.44231 -90.71451 34317 ft 440 kts 218°
2026-04-20 07:39 31.38811 -90.74767 34309 ft 439 kts 218°
2026-04-20 07:39 31.33399 -90.78074 34320 ft 438 kts 218°
2026-04-20 07:40 31.27997 -90.81371 34315 ft 438 kts 218°
2026-04-20 07:40 31.22602 -90.84659 34325 ft 437 kts 217°
2026-04-20 07:41 31.17205 -90.87944 34313 ft 437 kts 217°
2026-04-20 07:41 31.11801 -90.91230 34305 ft 437 kts 217°
2026-04-20 07:42 31.06406 -90.94505 34307 ft 438 kts 217°
2026-04-20 07:42 31.00998 -90.97784 34304 ft 438 kts 217°
2026-04-20 07:43 30.95631 -91.01033 34309 ft 438 kts 217°
2026-04-20 07:43 30.90636 -91.04055 34305 ft 438 kts 217°
2026-04-20 07:44 30.85202 -91.07339 34473 ft 443 kts 217°
2026-04-20 07:44 30.82469 -91.08989 34811 ft 442 kts 217°
2026-04-20 07:44 30.79744 -91.10629 35205 ft 439 kts 217°
2026-04-20 07:45 30.77045 -91.12252 35593 ft 437 kts 218°
2026-04-20 07:45 30.74344 -91.13877 35958 ft 435 kts 218°
2026-04-20 07:45 30.71661 -91.15492 36216 ft 436 kts 218°
2026-04-20 07:45 30.68958 -91.17124 36242 ft 440 kts 218°
2026-04-20 07:46 30.63524 -91.20391 36291 ft 438 kts 218°
2026-04-20 07:46 30.58147 -91.23613 36295 ft 433 kts 218°
2026-04-20 07:47 30.52802 -91.26821 36297 ft 432 kts 218°
2026-04-20 07:47 30.47467 -91.30010 36300 ft 432 kts 218°
2026-04-20 07:48 30.42052 -91.33110 36298 ft 434 kts 217°
2026-04-20 07:48 30.36612 -91.36173 36298 ft 435 kts 217°
2026-04-20 07:49 30.31161 -91.39250 36301 ft 436 kts 217°
2026-04-20 07:49 30.25695 -91.42343 36283 ft 438 kts 217°
2026-04-20 07:50 30.20256 -91.45420 36291 ft 439 kts 217°
2026-04-20 07:50 30.14762 -91.48526 36293 ft 440 kts 217°
2026-04-20 07:51 30.09262 -91.51630 36291 ft 440 kts 217°
2026-04-20 07:51 30.03755 -91.54735 36287 ft 441 kts 217°
2026-04-20 07:52 29.98237 -91.57842 36285 ft 441 kts 217°
2026-04-20 07:52 29.92713 -91.60948 36284 ft 442 kts 217°
2026-04-20 07:53 29.87193 -91.64048 36289 ft 441 kts 217°
2026-04-20 07:53 29.81670 -91.67146 36288 ft 441 kts 217°
2026-04-20 07:54 29.76151 -91.70238 36283 ft 441 kts 217°
2026-04-20 07:54 29.70635 -91.73324 36288 ft 441 kts 217°
2026-04-20 07:55 29.65124 -91.76404 36287 ft 440 kts 217°
2026-04-20 07:55 29.59619 -91.79477 36283 ft 439 kts 217°
2026-04-20 07:56 29.54122 -91.82543 36286 ft 439 kts 217°
2026-04-20 07:56 29.48629 -91.85601 36283 ft 439 kts 217°
2026-04-20 07:57 29.43171 -91.88638 36283 ft 438 kts 217°
2026-04-20 07:57 29.37643 -91.91709 36281 ft 438 kts 217°
2026-04-20 07:58 29.32194 -91.94732 36276 ft 438 kts 217°
2026-04-20 07:58 29.26704 -91.97775 36272 ft 438 kts 217°
2026-04-20 07:59 29.21210 -92.00817 36270 ft 439 kts 216°
2026-04-20 07:59 29.15712 -92.03856 36268 ft 439 kts 216°
2026-04-20 08:00 29.10219 -92.06890 36267 ft 439 kts 216°
2026-04-20 08:00 29.04719 -92.09924 36266 ft 439 kts 216°
2026-04-20 08:01 28.99218 -92.12954 36261 ft 439 kts 216°
2026-04-20 08:01 28.93710 -92.15985 36254 ft 439 kts 216°
2026-04-20 08:02 28.88199 -92.19015 36256 ft 440 kts 216°
2026-04-20 08:02 28.82676 -92.22047 36255 ft 441 kts 216°
2026-04-20 08:03 28.77141 -92.25082 36252 ft 442 kts 216°
2026-04-20 08:03 28.71590 -92.28122 36252 ft 443 kts 216°
2026-04-20 08:04 28.66035 -92.31161 36251 ft 444 kts 216°
2026-04-20 08:04 28.60456 -92.34209 36244 ft 445 kts 216°
2026-04-20 08:05 28.54874 -92.37255 36248 ft 445 kts 216°
2026-04-20 08:05 28.49282 -92.40303 36243 ft 446 kts 216°
2026-04-20 08:06 28.43687 -92.43350 36240 ft 446 kts 216°
2026-04-20 08:06 28.38085 -92.46397 36233 ft 447 kts 216°
2026-04-20 08:07 28.32475 -92.49444 36236 ft 447 kts 215°
2026-04-20 08:07 28.27054 -92.52678 36240 ft 436 kts 223°
2026-04-20 08:08 28.22281 -92.56791 36237 ft 427 kts 230°
2026-04-20 08:08 28.18149 -92.61517 36233 ft 421 kts 234°
2026-04-20 08:09 28.14112 -92.66335 36225 ft 422 kts 234°
2026-04-20 08:09 28.09763 -92.70865 36229 ft 430 kts 226°
2026-04-20 08:10 28.04754 -92.74697 36228 ft 438 kts 220°
2026-04-20 08:10 27.99537 -92.78279 36220 ft 439 kts 220°
2026-04-20 08:11 27.94316 -92.81866 36217 ft 439 kts 220°
2026-04-20 08:11 27.89107 -92.85466 36212 ft 439 kts 220°
2026-04-20 08:12 27.83898 -92.89070 36221 ft 439 kts 220°
2026-04-20 08:12 27.78686 -92.92673 36220 ft 439 kts 220°
2026-04-20 08:13 27.73466 -92.96278 36217 ft 440 kts 220°
2026-04-20 08:13 27.68250 -92.99875 36218 ft 440 kts 220°
2026-04-20 08:14 27.63020 -93.03478 36216 ft 440 kts 220°
2026-04-20 08:14 27.57789 -93.07077 36207 ft 441 kts 220°
2026-04-20 08:15 27.52553 -93.10677 36221 ft 441 kts 220°
2026-04-20 08:15 27.47304 -93.14280 36217 ft 442 kts 220°
2026-04-20 08:16 27.42052 -93.17879 36212 ft 442 kts 219°
2026-04-20 08:16 27.37680 -93.20873 36208 ft 443 kts 219°
2026-04-20 08:17 27.32412 -93.24478 36210 ft 443 kts 219°
2026-04-20 08:17 27.27136 -93.28084 36209 ft 444 kts 219°
2026-04-20 08:18 27.21858 -93.31688 36206 ft 444 kts 219°
2026-04-20 08:18 27.16571 -93.35293 36203 ft 444 kts 219°
2026-04-20 08:19 27.11282 -93.38896 36201 ft 444 kts 219°
2026-04-20 08:19 27.05998 -93.42492 36200 ft 444 kts 219°
2026-04-20 08:20 27.00716 -93.46083 36195 ft 444 kts 219°
2026-04-20 08:20 26.95430 -93.49672 36197 ft 444 kts 219°
2026-04-20 08:21 26.90146 -93.53255 36195 ft 444 kts 219°
2026-04-20 08:21 26.84869 -93.56830 36195 ft 444 kts 219°
2026-04-20 08:22 26.79584 -93.60407 36193 ft 444 kts 219°
2026-04-20 08:22 26.74300 -93.63980 36191 ft 444 kts 219°
2026-04-20 08:23 26.69018 -93.67548 36193 ft 444 kts 219°
2026-04-20 08:23 26.63726 -93.71118 36184 ft 444 kts 219°
2026-04-20 08:24 26.58440 -93.74681 36187 ft 444 kts 219°
2026-04-20 08:24 26.53142 -93.78247 36184 ft 444 kts 219°
2026-04-20 08:25 26.47850 -93.81810 36184 ft 444 kts 219°
2026-04-20 08:25 26.42552 -93.85376 36184 ft 445 kts 219°
2026-04-20 08:26 26.37288 -93.88915 36179 ft 445 kts 219°
2026-04-20 08:26 26.31983 -93.92478 36183 ft 445 kts 218°
2026-04-20 08:27 26.26679 -93.96036 36178 ft 445 kts 218°
2026-04-20 08:27 26.21370 -93.99594 36181 ft 445 kts 218°
2026-04-20 08:28 26.16053 -94.03154 36175 ft 446 kts 218°
2026-04-20 08:28 26.10738 -94.06708 36166 ft 446 kts 218°
2026-04-20 08:29 26.05420 -94.10260 36174 ft 446 kts 218°
2026-04-20 08:29 26.00102 -94.13809 36172 ft 446 kts 218°
2026-04-20 08:30 25.94773 -94.17361 36171 ft 446 kts 218°
2026-04-20 08:30 25.89452 -94.20904 36171 ft 446 kts 218°
2026-04-20 08:31 25.84128 -94.24446 36169 ft 446 kts 218°
2026-04-20 08:31 25.78812 -94.27978 36169 ft 445 kts 218°
2026-04-20 08:32 25.73494 -94.31508 36162 ft 445 kts 218°
2026-04-20 08:32 25.68184 -94.35029 36162 ft 445 kts 218°
2026-04-20 08:33 25.60224 -94.40300 36160 ft 444 kts 217°
2026-04-20 08:34 25.54920 -94.43808 36161 ft 444 kts 217°
2026-04-20 08:34 25.49616 -94.47313 36159 ft 444 kts 217°
2026-04-20 08:35 25.44321 -94.50808 36157 ft 443 kts 218°
2026-04-20 08:35 25.39023 -94.54302 36150 ft 443 kts 218°
2026-04-20 08:36 25.33771 -94.57761 36161 ft 442 kts 218°
2026-04-20 08:36 25.28456 -94.61190 36158 ft 442 kts 217°
2026-04-20 08:37 25.23102 -94.64545 36146 ft 442 kts 216°
2026-04-20 08:37 25.17759 -94.67893 36148 ft 441 kts 217°
2026-04-20 08:38 25.12431 -94.71242 36154 ft 440 kts 217°
2026-04-20 08:38 25.07112 -94.74588 36144 ft 440 kts 217°
2026-04-20 08:39 25.01791 -94.77932 36151 ft 440 kts 216°
2026-04-20 08:39 24.96475 -94.81268 36153 ft 440 kts 216°
2026-04-20 08:40 24.91159 -94.84602 36150 ft 440 kts 216°
2026-04-20 08:40 24.85841 -94.87934 36144 ft 440 kts 216°
2026-04-20 08:41 24.80522 -94.91268 36149 ft 440 kts 216°
2026-04-20 08:41 24.75243 -94.94587 36146 ft 440 kts 216°
2026-04-20 08:42 24.69922 -94.97929 36141 ft 441 kts 216°
2026-04-20 08:42 24.64599 -95.01269 36145 ft 441 kts 216°
2026-04-20 08:43 24.59266 -95.04611 36144 ft 441 kts 216°
2026-04-20 08:43 24.53926 -95.07954 36143 ft 442 kts 216°
2026-04-20 08:44 24.48588 -95.11294 36140 ft 442 kts 216°
2026-04-20 08:44 24.43236 -95.14629 36141 ft 442 kts 216°
2026-04-20 08:45 24.37875 -95.17954 36142 ft 443 kts 216°
2026-04-20 08:45 24.32509 -95.21282 36137 ft 443 kts 216°
2026-04-20 08:46 24.27148 -95.24616 36146 ft 443 kts 215°
2026-04-20 08:46 24.21784 -95.27950 36140 ft 443 kts 215°
2026-04-20 08:47 24.16414 -95.31285 36139 ft 444 kts 215°
2026-04-20 08:47 24.11044 -95.34615 36146 ft 444 kts 215°
2026-04-20 08:48 24.05672 -95.37944 36137 ft 444 kts 215°
2026-04-20 08:48 24.00297 -95.41271 36146 ft 444 kts 215°
2026-04-20 08:49 23.94917 -95.44598 36141 ft 444 kts 215°
2026-04-20 08:49 23.89572 -95.47901 36139 ft 444 kts 215°
2026-04-20 08:50 23.84150 -95.51248 36150 ft 445 kts 214°
2026-04-20 08:50 23.78763 -95.54570 36148 ft 445 kts 214°
2026-04-20 08:51 23.73373 -95.57891 36144 ft 445 kts 214°
2026-04-20 08:51 23.68012 -95.61192 36140 ft 445 kts 214°
2026-04-20 08:52 23.62611 -95.64506 36141 ft 446 kts 214°
2026-04-20 08:52 23.57204 -95.67814 36140 ft 446 kts 214°
2026-04-20 08:53 23.51789 -95.71126 36141 ft 446 kts 214°
2026-04-20 08:53 23.46372 -95.74437 36140 ft 447 kts 214°
2026-04-20 08:54 23.40947 -95.77750 36138 ft 447 kts 214°
2026-04-20 08:54 23.35517 -95.81063 36141 ft 448 kts 214°
2026-04-20 08:55 23.30085 -95.84375 36137 ft 448 kts 214°
2026-04-20 08:55 23.24646 -95.87687 36147 ft 448 kts 214°
2026-04-20 08:56 23.19205 -95.90999 36141 ft 448 kts 214°
2026-04-20 08:56 23.13759 -95.94310 36141 ft 448 kts 214°
2026-04-20 08:57 23.08316 -95.97627 36143 ft 448 kts 214°
2026-04-20 08:57 23.02870 -96.00940 36142 ft 449 kts 214°
2026-04-20 08:58 22.97420 -96.04250 36146 ft 449 kts 214°
2026-04-20 08:58 22.91971 -96.07558 36147 ft 449 kts 214°
2026-04-20 08:59 22.86514 -96.10869 36146 ft 450 kts 213°
2026-04-20 08:59 22.81089 -96.14157 36143 ft 450 kts 213°
2026-04-20 09:00 22.75624 -96.17466 36144 ft 450 kts 213°
2026-04-20 09:00 22.70157 -96.20774 36142 ft 450 kts 213°
2026-04-20 09:01 22.64684 -96.24082 36146 ft 451 kts 213°
2026-04-20 09:01 22.59207 -96.27389 36146 ft 451 kts 213°
2026-04-20 09:02 22.53729 -96.30694 36144 ft 451 kts 213°
2026-04-20 09:02 22.48246 -96.34000 36138 ft 451 kts 213°
2026-04-20 09:03 22.42764 -96.37301 36138 ft 451 kts 213°
2026-04-20 09:03 22.37280 -96.40601 36144 ft 451 kts 213°
2026-04-20 09:04 22.31792 -96.43900 36151 ft 451 kts 213°
2026-04-20 09:04 22.26307 -96.47195 36143 ft 452 kts 213°
2026-04-20 09:05 22.20813 -96.50493 36141 ft 452 kts 213°
2026-04-20 09:05 22.15357 -96.53764 36145 ft 452 kts 213°
2026-04-20 09:06 22.09856 -96.57049 36144 ft 452 kts 213°
2026-04-20 09:06 22.04350 -96.60328 36143 ft 452 kts 213°
2026-04-20 09:07 21.99741 -96.63073 36143 ft 452 kts 213°
2026-04-20 09:07 21.94235 -96.66351 36143 ft 452 kts 213°
2026-04-20 09:08 21.88733 -96.69624 36145 ft 452 kts 213°
2026-04-20 09:08 21.83259 -96.72877 36144 ft 452 kts 213°
2026-04-20 09:09 21.77716 -96.76169 36142 ft 452 kts 213°
2026-04-20 09:09 21.72241 -96.79418 36145 ft 452 kts 213°
2026-04-20 09:10 21.66688 -96.82709 36144 ft 453 kts 213°
2026-04-20 09:10 21.61173 -96.85978 36144 ft 453 kts 213°
2026-04-20 09:11 21.55702 -96.89219 36145 ft 453 kts 213°
2026-04-20 09:11 21.50175 -96.92491 36147 ft 453 kts 213°
2026-04-20 09:12 21.44644 -96.95763 36141 ft 454 kts 213°
2026-04-20 09:12 21.39119 -96.99033 36143 ft 454 kts 213°
2026-04-20 09:13 21.33581 -97.02308 36144 ft 454 kts 212°
2026-04-20 09:13 21.28045 -97.05579 36145 ft 454 kts 212°
2026-04-20 09:14 21.22503 -97.08850 36147 ft 455 kts 212°
2026-04-20 09:14 21.16961 -97.12119 36149 ft 455 kts 212°
2026-04-20 09:15 21.11418 -97.15385 36147 ft 455 kts 212°
2026-04-20 09:15 21.05868 -97.18654 36147 ft 455 kts 212°
2026-04-20 09:16 21.00313 -97.21921 36149 ft 456 kts 212°
2026-04-20 09:16 20.94761 -97.25185 36149 ft 456 kts 212°
2026-04-20 09:17 20.89195 -97.28454 36152 ft 456 kts 212°
2026-04-20 09:17 20.83629 -97.31720 36150 ft 456 kts 212°
2026-04-20 09:18 20.78088 -97.34968 36139 ft 449 kts 212°
2026-04-20 09:18 20.75353 -97.36570 35735 ft 447 kts 212°
2026-04-20 09:18 20.72646 -97.38156 35324 ft 442 kts 212°
2026-04-20 09:18 20.69959 -97.39730 34811 ft 439 kts 212°
2026-04-20 09:19 20.67287 -97.41294 34317 ft 437 kts 212°
2026-04-20 09:19 20.64623 -97.42854 33749 ft 435 kts 213°
2026-04-20 09:19 20.62087 -97.44567 33221 ft 429 kts 219°
2026-04-20 09:19 20.59769 -97.46539 32729 ft 424 kts 224°
2026-04-20 09:20 20.57615 -97.48667 32229 ft 419 kts 228°
2026-04-20 09:20 20.55682 -97.50969 31739 ft 415 kts 232°
2026-04-20 09:20 20.53827 -97.53316 31250 ft 413 kts 232°
2026-04-20 09:20 20.51993 -97.55663 30769 ft 411 kts 232°
2026-04-20 09:21 20.50169 -97.57994 30276 ft 409 kts 232°
2026-04-20 09:21 20.48346 -97.60317 29725 ft 407 kts 232°
2026-04-20 09:21 20.46553 -97.62591 29205 ft 405 kts 232°
2026-04-20 09:21 20.44746 -97.64876 28706 ft 402 kts 231°
2026-04-20 09:22 20.42947 -97.67147 28222 ft 399 kts 231°
2026-04-20 09:22 20.41161 -97.69398 27742 ft 397 kts 231°
2026-04-20 09:22 20.39383 -97.71637 27290 ft 394 kts 231°
2026-04-20 09:22 20.37618 -97.73860 26817 ft 392 kts 231°
2026-04-20 09:23 20.35860 -97.76072 26367 ft 390 kts 231°
2026-04-20 09:23 20.34109 -97.78276 25903 ft 389 kts 231°
2026-04-20 09:23 20.32363 -97.80471 25459 ft 387 kts 231°
2026-04-20 09:23 20.30622 -97.82660 24994 ft 387 kts 231°
2026-04-20 09:24 20.28885 -97.84843 24542 ft 386 kts 231°
2026-04-20 09:24 20.27150 -97.87023 24092 ft 386 kts 231°
2026-04-20 09:24 20.25417 -97.89200 23615 ft 385 kts 231°
2026-04-20 09:24 20.23689 -97.91370 23111 ft 384 kts 231°
2026-04-20 09:25 20.21964 -97.93536 22661 ft 382 kts 231°
2026-04-20 09:25 20.20250 -97.95686 22206 ft 380 kts 231°
2026-04-20 09:25 20.18548 -97.97822 21769 ft 377 kts 231°
2026-04-20 09:25 20.16855 -97.99943 21350 ft 375 kts 231°
2026-04-20 09:26 20.15171 -98.02056 20914 ft 372 kts 232°
2026-04-20 09:26 20.13799 -98.04367 20477 ft 369 kts 247°
2026-04-20 09:26 20.13012 -98.06952 20061 ft 367 kts 259°
2026-04-20 09:26 20.12759 -98.09643 19642 ft 365 kts 269°
2026-04-20 09:27 20.12757 -98.12336 19208 ft 364 kts 270°
2026-04-20 09:27 20.12772 -98.15044 18695 ft 367 kts 270°
2026-04-20 09:27 20.12779 -98.17761 18198 ft 367 kts 270°
2026-04-20 09:27 20.12774 -98.20475 17665 ft 367 kts 270°
2026-04-20 09:28 20.12758 -98.23141 17247 ft 350 kts 270°
2026-04-20 09:28 20.12737 -98.25632 17052 ft 323 kts 270°
2026-04-20 09:28 20.12717 -98.27931 16911 ft 303 kts 270°
2026-04-20 09:28 20.12696 -98.30142 16771 ft 296 kts 269°
2026-04-20 09:29 20.12557 -98.32351 16439 ft 306 kts 265°
2026-04-20 09:29 20.12329 -98.34646 16131 ft 316 kts 265°
2026-04-20 09:29 20.12097 -98.36974 15769 ft 317 kts 265°
2026-04-20 09:29 20.11877 -98.39302 15404 ft 315 kts 265°
2026-04-20 09:30 20.11669 -98.41579 15057 ft 312 kts 266°
2026-04-20 09:30 20.11458 -98.43899 14830 ft 312 kts 266°
2026-04-20 09:30 20.11246 -98.46212 14835 ft 315 kts 266°
2026-04-20 09:30 20.11031 -98.48532 14817 ft 313 kts 266°
2026-04-20 09:31 20.10823 -98.50766 14808 ft 301 kts 265°
2026-04-20 09:31 20.10337 -98.52900 14788 ft 290 kts 248°
2026-04-20 09:31 20.09486 -98.54815 14722 ft 290 kts 245°
2026-04-20 09:31 20.08579 -98.56765 14661 ft 290 kts 245°
2026-04-20 09:32 20.07701 -98.58661 14581 ft 290 kts 246°
2026-04-20 09:32 20.06819 -98.60583 14529 ft 289 kts 246°
2026-04-20 09:32 20.05941 -98.62509 14463 ft 289 kts 246°
2026-04-20 09:32 20.05069 -98.64434 14401 ft 289 kts 246°
2026-04-20 09:33 20.04199 -98.66360 14333 ft 289 kts 246°
2026-04-20 09:33 20.03332 -98.68286 14259 ft 289 kts 246°
2026-04-20 09:33 20.02465 -98.70211 14199 ft 288 kts 246°
2026-04-20 09:33 20.01659 -98.72003 14136 ft 288 kts 246°
2026-04-20 09:34 20.00921 -98.73642 14078 ft 287 kts 246°
2026-04-20 09:34 20.00034 -98.75615 14012 ft 287 kts 246°
2026-04-20 09:34 19.98321 -98.79420 13884 ft 280 kts 246°
2026-04-20 09:35 19.97495 -98.81253 13829 ft 269 kts 246°
2026-04-20 09:35 19.96654 -98.82988 13749 ft 263 kts 243°
2026-04-20 09:35 19.95770 -98.84703 13573 ft 267 kts 243°
2026-04-20 09:35 19.94863 -98.86455 13130 ft 274 kts 243°
2026-04-20 09:36 19.93940 -98.88245 12933 ft 280 kts 243°
2026-04-20 09:36 19.92989 -98.90099 12934 ft 292 kts 243°
2026-04-20 09:36 19.92029 -98.91974 12934 ft 296 kts 243°
2026-04-20 09:36 19.91043 -98.93900 12941 ft 297 kts 243°
2026-04-20 09:37 19.90073 -98.95841 12938 ft 297 kts 246°
2026-04-20 09:37 19.89300 -98.97864 12959 ft 295 kts 251°
2026-04-20 09:37 19.88595 -98.99912 12968 ft 295 kts 251°
2026-04-20 09:37 19.87878 -99.01952 12956 ft 295 kts 250°
2026-04-20 09:38 19.87146 -99.03990 12958 ft 295 kts 250°
2026-04-20 09:38 19.86417 -99.06003 12932 ft 294 kts 250°
2026-04-20 09:38 19.85686 -99.08010 12731 ft 284 kts 250°
2026-04-20 09:38 19.84995 -99.09899 12414 ft 266 kts 250°
2026-04-20 09:39 19.84366 -99.11705 11893 ft 257 kts 252°
2026-04-20 09:39 19.83817 -99.13493 11307 ft 253 kts 252°
2026-04-20 09:39 19.83267 -99.15296 11153 ft 258 kts 252°
2026-04-20 09:39 19.82710 -99.17105 10962 ft 257 kts 252°
2026-04-20 09:40 19.82154 -99.18900 10951 ft 255 kts 251°
2026-04-20 09:40 19.81297 -99.20524 10915 ft 253 kts 222°
2026-04-20 09:40 19.79788 -99.21439 10873 ft 254 kts 192°
2026-04-20 09:40 19.78033 -99.21526 10696 ft 250 kts 173°
2026-04-20 09:41 19.76338 -99.21331 10537 ft 243 kts 173°
2026-04-20 09:41 19.74662 -99.21142 10406 ft 241 kts 173°
2026-04-20 09:41 19.73026 -99.20961 10305 ft 231 kts 173°
2026-04-20 09:41 19.71455 -99.20789 10117 ft 222 kts 173°
2026-04-20 09:42 19.69947 -99.20627 9992 ft 215 kts 173°
2026-04-20 09:42 19.68507 -99.20293 9834 ft 214 kts 152°
2026-04-20 09:42 19.67224 -99.19490 9736 ft 211 kts 148°
2026-04-20 09:42 19.66057 -99.18626 9561 ft 197 kts 129°
2026-04-20 09:43 19.65493 -99.17389 9476 ft 185 kts 101°
2026-04-20 09:43 19.65466 -99.16018 9400 ft 189 kts 82°
2026-04-20 09:43 19.65702 -99.14650 9296 ft 190 kts 79°
2026-04-20 09:43 19.66085 -99.13332 9139 ft 183 kts 58°
2026-04-20 09:44 19.66784 -99.12268 9103 ft 172 kts 56°
2026-04-20 09:44 19.67483 -99.11267 8966 ft 169 kts 51°
2026-04-20 09:44 19.68234 -99.10305 8839 ft 170 kts 50°
2026-04-20 09:44 19.68992 -99.09374 8677 ft 168 kts 49°
2026-04-20 09:45 19.69772 -99.08421 8509 ft 168 kts 48°
2026-04-20 09:45 19.70531 -99.07486 8301 ft 167 kts 48°
2026-04-20 09:45 19.71302 -99.06545 8124 ft 171 kts 47°
2026-04-20 09:45 19.72083 -99.05590 7861 ft 171 kts 47°
2026-04-20 09:46 19.72862 -99.04637 7560 ft 170 kts 47°
2026-04-20 09:46 19.73633 -99.03695 7388 ft 167 kts 47°
2026-04-20 09:46 19.74289 -99.02896 7382 ft 132 kts 49°
2026-04-20 09:46 19.74767 -99.02310 7379 ft 79 kts 49°
2026-04-20 09:47 19.75016 -99.02004 7380 ft 40 kts 49°
2026-04-20 09:47 19.75139 -99.01856 7382 ft 16 kts 49°
2026-04-20 09:47 19.75162 -99.01793 7382 ft 6 kts 104°
2026-04-20 09:47 19.75137 -99.01761 7382 ft 6 kts 137°
2026-04-20 09:48 19.75106 -99.01731 7382 ft 6 kts 137°
2026-04-20 09:48 19.75078 -99.01701 7380 ft 6 kts 126°
2026-04-20 09:48 19.75095 -99.01641 7382 ft 12 kts 47°
2026-04-20 09:48 19.75187 -99.01530 7380 ft 23 kts 49°
2026-04-20 09:49 19.75294 -99.01400 7381 ft 23 kts 49°
2026-04-20 09:49 19.75400 -99.01271 7381 ft 23 kts 49°
2026-04-20 09:49 19.75492 -99.01160 7381 ft 18 kts 49°
2026-04-20 09:49 19.75546 -99.01081 7381 ft 3 kts 100°
2026-04-20 09:50 19.75526 -99.01061 7381 ft 6 kts 144°
2026-04-20 09:50 19.75468 -99.01015 7381 ft 15 kts 143°
2026-04-20 09:50 19.75434 -99.00989 7381 ft 0 kts 144°
2026-04-20 09:50 19.75433 -99.00989 7381 ft 1 kts 144°
2026-04-20 09:51 19.75443 -99.00943 7382 ft 9 kts 44°
2026-04-20 09:51 19.75488 -99.00900 7382 ft 8 kts 42°
2026-04-20 09:51 19.75488 -99.00861 7381 ft 6 kts 127°
2026-04-20 09:51 19.75459 -99.00833 7382 ft 6 kts 138°
2026-04-20 09:52 19.75434 -99.00810 7381 ft 3 kts 139°
2026-04-20 09:52 19.75430 -99.00807 7381 ft 0 kts 139°